Tracking 31027 objects as of 19-Jul-2025
HD Live streaming from Space Station
objects crossing your sky now

DELTA 1 DEB

Track DELTA 1 DEB now!
10-day predictions


NORAD ID: 18645
Int'l Code: 1973-086GX
Perigee: 1,435.0 km
Apogee: 1,615.3 km
Inclination: 102.3 °
Period: 116.4 minutes
Semi major axis: 7896 km
RCS: 0.0222 m2 (small)
Launch date: November 6, 1973
Source: United States (US)
Launch site: AIR FORCE WESTERN TEST RANGE (AFWTR)

Note: This is SATELLITE DEBRIS
Your satellite tracking list
FLOCK 3P 17
Track 1 satellite(s)




NASA's NSSDC Master Catalog

Two Line Element Set (TLE):
1 18645U 73086GX  25199.27097080 -.00000028  00000-0  13849-3 0  9996
2 18645 102.2792 324.5033 0114158 330.1716  60.1183 12.37320893822661
Source of the keplerian elements: AFSPC